Home > Weather > Lens > Past weeks

Flag for France Past Weather in Lens, Nord-Pas-de-Calais, France — Yesterday and Last 2 Weeks

Now
64 °F

Partly sunny.


Feels Like: 64 °F
Forecast: 51 / 76 °F
Wind: 7 mph from North

Location: Lille Airport

Current Time: Aug 29, 2016 at 11:12:38 AM

Latest Report: Aug 29, 2016 at 10:30 AM


Visibility: N/A

Pressure: 30.12 "Hg

Humidity: 83%

Dew Point: 59 °F

Location of LensLocation

Past Weather in Lens — Graph

°F

Lens Temperature Yesterday

Maximum temperature yesterday: 75 °F (at 12:00 AM)
Minimum temperature yesterday: 64 °F (at 10:00 PM)
Average temperature yesterday: 70 °F

High & Low Weather Summary for the Past Weeks

 TemperatureHumidityPressure
High95 °F (Aug 25, 4:30 PM)100% (Aug 14, 10:00 AM)30.30 "Hg (Aug 14, 10:00 AM)
Low55 °F (Aug 16, 7:00 AM)28% (Aug 24, 5:00 PM)29.74 "Hg (Aug 19, 5:00 PM)
Average70 °F69%30.02 "Hg
* Reported Aug 14 10:00 AM — Aug 29 10:00 AM, Lens, Weather by CustomWeather, © 2016

Note: Actual official high and low records may vary slightly from our data, if they occured in-between our weather recording intervals... More about our weather records

Advertising

Lens Weather History for the Previous 24 Hours

Scroll right to see more
 ConditionsComfort  
Time TempWeatherWind HumidityBarometerVisibility
10:00 AM
Mon, Aug 29
64 °FDrizzle. Overcast.8 mph94%30.09 "Hg4 mi
9:30 AM64 °FOvercast.7 mph88%30.09 "HgN/A
9:00 AM64 °FMostly cloudy.7 mph88%30.09 "HgN/A
8:30 AM64 °FCloudy.6 mph88%30.07 "HgN/A
8:00 AM64 °FPartly sunny.6 mph88%30.07 "HgN/A
7:30 AM63 °FOvercast.3 mph94%30.07 "HgN/A
7:00 AM63 °FPassing clouds.3 mph88%30.07 "HgN/A
6:30 AM63 °FPassing clouds.5 mph88%30.04 "HgN/A
6:00 AM64 °FPartly cloudy.7 mph83%30.04 "HgN/A
5:30 AM64 °FMostly cloudy.5 mph83%30.04 "HgN/A
5:00 AM64 °FMostly cloudy.5 mph83%30.04 "HgN/A
4:30 AM64 °FPassing clouds.5 mph83%30.04 "HgN/A
4:00 AM64 °FMostly cloudy.7 mph83%30.04 "HgN/A
3:30 AM64 °FMostly cloudy.6 mph83%30.04 "HgN/A
3:00 AM64 °FMostly cloudy.7 mph83%30.04 "HgN/A
2:30 AM64 °FPassing clouds.6 mph78%30.04 "HgN/A
2:00 AM64 °FOvercast.7 mph78%30.04 "HgN/A
1:30 AM66 °FOvercast.6 mph78%30.04 "HgN/A
1:00 AM66 °FOvercast.6 mph73%30.04 "HgN/A
12:30 AM66 °FClear.6 mph73%30.04 "Hg10 mi
12:00 AM66 °FClear.7 mph73%30.04 "Hg10 mi
11:30 PM
Sun, Aug 28
66 °FClear.3 mph73%30.04 "Hg10 mi
11:00 PM64 °FClear.1 mph73%30.04 "Hg10 mi
10:30 PM64 °FClear.3 mph73%30.01 "Hg10 mi
10:00 PM64 °FClear.7 mph73%30.01 "Hg10 mi
9:30 PM66 °FSunny.7 mph68%30.01 "Hg10 mi
9:00 PM66 °FSunny.6 mph68%30.01 "Hg10 mi
8:30 PM68 °FSunny.13 mph64%30.01 "Hg10 mi
8:00 PM70 °FSunny.14 mph60%30.01 "Hg10 mi
7:30 PM72 °FSunny.15 mph57%30.01 "Hg10 mi
7:00 PM73 °FSunny.17 mph50%30.01 "Hg10 mi
6:30 PM73 °FPassing clouds.17 mph53%30.01 "HgN/A
6:00 PM73 °FPartly sunny.16 mph57%30.01 "HgN/A
5:30 PM73 °FBroken clouds.16 mph57%30.01 "HgN/A
5:00 PM73 °FPartly sunny.15 mph57%29.98 "HgN/A
4:30 PM73 °FPartly sunny.18 mph57%29.98 "HgN/A
4:00 PM75 °FPartly sunny.17 mph50%29.98 "HgN/A
3:30 PM75 °FScattered clouds.17 mph50%29.98 "HgN/A
3:00 PM75 °FBroken clouds.18 mph50%29.98 "HgN/A
2:30 PM75 °FPartly sunny.18 mph50%29.98 "HgN/A
2:00 PM75 °FPartly sunny.17 mph54%29.98 "HgN/A
1:30 PM73 °FPartly sunny.18 mph53%29.98 "HgN/A
1:00 PM73 °FScattered clouds.17 mph53%29.98 "HgN/A
12:30 PM72 °FPartly sunny.15 mph61%29.98 "HgN/A
12:00 PM73 °FPartly sunny.16 mph61%29.98 "HgN/A
11:30 AM72 °FPartly sunny.15 mph61%29.98 "HgN/A
11:00 AM68 °FPartly sunny.16 mph69%29.98 "HgN/A
Weather by CustomWeather, © 2016

See weather overviewHow to use our weather pages